• In Hungary
  • List of Countries
  • For 7 days
  • Water Temperature
  • Satellite Maps
  • Weather Map
  • News
  • Weather Widgets
  • user-avatar
    Login

    Hourly Weather Smolan

    Today, 21 August, Tuesday

    Time Temperature Precipitation Wind Pressure Humidity
    00:00 +13°C° 0 mm 2 mps 656 mmHg 59%
    01:00 +13°C° 0 mm 2 mps 656 mmHg 60%
    02:00 +13°C° 0 mm 2 mps 656 mmHg 62%
    03:00 +13°C° 0 mm 2 mps 656 mmHg 63%
    04:00 +12°C° 0 mm 3 mps 656 mmHg 64%
    05:00 +11°C° 0 mm 3 mps 656 mmHg 65%
    06:00 +13°C° 0 mm 3 mps 657 mmHg 60%
    07:00 +16°C° 0 mm 3 mps 657 mmHg 56%
    08:00 +18°C° 0 mm 3 mps 658 mmHg 51%
    09:00 +20°C° 0 mm 4 mps 658 mmHg 46%
    10:00 +21°C° 0 mm 4 mps 659 mmHg 42%
    11:00 +23°C° 0 mm 5 mps 659 mmHg 37%
    12:00 +25°C° 0 mm 5 mps 659 mmHg 34%
    13:00 +25°C° 0 mm 4 mps 659 mmHg 32%
    14:00 +26°C° 0 mm 4 mps 659 mmHg 29%
    15:00 +26°C° 0 mm 4 mps 659 mmHg 30%
    16:00 +25°C° 0 mm 4 mps 659 mmHg 31%
    17:00 +25°C° 0 mm 3 mps 658 mmHg 31%
    18:00 +22°C° 0 mm 3 mps 658 mmHg 38%
    19:00 +19°C° 0 mm 2 mps 657 mmHg 44%
    20:00 +17°C° 0 mm 2 mps 657 mmHg 50%
    21:00 +16°C° 0 mm 2 mps 657 mmHg 52%
    22:00 +15°C° 0 mm 2 mps 657 mmHg 54%
    23:00 +14°C° 0 mm 2 mps 657 mmHg 56%

    Tomorrow, 22 August, Wednesday

    Time Temperature Precipitation Wind Pressure Humidity
    00:00 +14°C° 0 mm 2 mps 657 mmHg 58%
    01:00 +14°C° 0 mm 2 mps 657 mmHg 59%
    02:00 +13°C° 0 mm 2 mps 657 mmHg 60%
    03:00 +13°C° 0 mm 2 mps 657 mmHg 61%
    04:00 +12°C° 0 mm 3 mps 657 mmHg 62%
    05:00 +12°C° 0 mm 3 mps 657 mmHg 63%
    06:00 +14°C° 0 mm 3 mps 657 mmHg 57%
    07:00 +17°C° 0 mm 3 mps 658 mmHg 51%
    08:00 +19°C° 0 mm 3 mps 659 mmHg 45%
    09:00 +20°C° 0 mm 4 mps 659 mmHg 41%
    10:00 +22°C° 0 mm 4 mps 660 mmHg 37%
    11:00 +25°C° 0 mm 5 mps 660 mmHg 33%
    12:00 +25°C° 0 mm 5 mps 660 mmHg 31%
    13:00 +26°C° 0 mm 5 mps 660 mmHg 29%
    14:00 +27°C° 0 mm 5 mps 660 mmHg 27%
    15:00 +26°C° 0 mm 5 mps 660 mmHg 28%
    16:00 +26°C° 0 mm 4 mps 659 mmHg 29%
    17:00 +26°C° 0 mm 4 mps 659 mmHg 29%
    18:00 +22°C° 0 mm 4 mps 659 mmHg 34%
    19:00 +20°C° 0 mm 3 mps 658 mmHg 39%
    20:00 +17°C° 0 mm 2 mps 658 mmHg 43%
    21:00 +16°C° 0 mm 2 mps 658 mmHg 45%
    22:00 +15°C° 0 mm 2 mps 658 mmHg 46%
    23:00 +14°C° 0 mm 2 mps 658 mmHg 47%

    Day after tomorrow, 23 August, Thursday

    Time Temperature Precipitation Wind Pressure Humidity
    00:00 +14°C° 0 mm 2 mps 658 mmHg 47%
    01:00 +14°C° 0 mm 2 mps 657 mmHg 48%
    02:00 +12°C° 0 mm 3 mps 657 mmHg 48%
    03:00 +12°C° 0 mm 3 mps 657 mmHg 48%
    04:00 +12°C° 0 mm 3 mps 657 mmHg 49%
    05:00 +12°C° 0 mm 3 mps 657 mmHg 50%
    06:00 +14°C° 0 mm 3 mps 657 mmHg 48%
    07:00 +17°C° 0 mm 3 mps 658 mmHg 46%
    08:00 +19°C° 0 mm 3 mps 658 mmHg 44%
    09:00 +20°C° 0 mm 3 mps 659 mmHg 42%
    10:00 +22°C° 0 mm 4 mps 659 mmHg 40%
    11:00 +23°C° 0 mm 4 mps 659 mmHg 39%
    12:00 +25°C° 0 mm 4 mps 659 mmHg 37%
    13:00 +25°C° 0 mm 4 mps 659 mmHg 36%
    14:00 +26°C° 0 mm 4 mps 659 mmHg 35%
    15:00 +26°C° 0 mm 4 mps 659 mmHg 37%
    16:00 +25°C° 0 mm 4 mps 658 mmHg 39%
    17:00 +25°C° 0 mm 4 mps 658 mmHg 42%
    18:00 +22°C° 0.1 mm 4 mps 657 mmHg 49%
    19:00 +19°C° 0.1 mm 3 mps 657 mmHg 57%
    20:00 +17°C° 0.1 mm 3 mps 657 mmHg 65%
    21:00 +16°C° 0.1 mm 3 mps 657 mmHg 70%
    22:00 +16°C° 0.1 mm 2 mps 657 mmHg 76%
    23:00 +15°C° 0.1 mm 2 mps 656 mmHg 81%

    24 August, Friday

    Time Temperature Precipitation Wind Pressure Humidity
    00:00 +14°C° 0 mm 2 mps 656 mmHg 83%
    01:00 +14°C° 0 mm 2 mps 656 mmHg 85%
    02:00 +13°C° 0 mm 2 mps 656 mmHg 87%
    03:00 +13°C° 0 mm 2 mps 655 mmHg 87%
    04:00 +13°C° 0 mm 2 mps 655 mmHg 87%
    05:00 +13°C° 0 mm 2 mps 655 mmHg 87%
    06:00 +14°C° 0 mm 2 mps 656 mmHg 79%
    07:00 +16°C° 0 mm 2 mps 656 mmHg 70%
    08:00 +18°C° 0 mm 2 mps 657 mmHg 62%
    09:00 +20°C° 0 mm 2 mps 657 mmHg 54%
    10:00 +23°C° 0 mm 2 mps 658 mmHg 46%
    11:00 +25°C° 0 mm 2 mps 658 mmHg 37%
    12:00 +25°C° 0 mm 2 mps 658 mmHg 35%
    13:00 +26°C° 0 mm 2 mps 657 mmHg 33%
    14:00 +27°C° 0 mm 2 mps 657 mmHg 31%
    15:00 +26°C° 0 mm 2 mps 657 mmHg 33%
    16:00 +26°C° 0 mm 2 mps 656 mmHg 35%
    17:00 +25°C° 0 mm 2 mps 656 mmHg 37%
    18:00 +23°C° 0 mm 2 mps 655 mmHg 41%
    19:00 +21°C° 0 mm 1 mps 655 mmHg 46%
    20:00 +19°C° 0 mm 1 mps 654 mmHg 51%
    21:00 +18°C° 0 mm 1 mps 654 mmHg 54%
    22:00 +16°C° 0 mm 1 mps 654 mmHg 57%
    23:00 +16°C° 0 mm 2 mps 654 mmHg 61%

    25 August, Saturday

    Time Temperature Precipitation Wind Pressure Humidity
    00:00 +15°C° 0 mm 1 mps 654 mmHg 63%
    01:00 +15°C° 0 mm 1 mps 654 mmHg 65%
    02:00 +14°C° 0 mm 1 mps 653 mmHg 68%
    03:00 +14°C° 0 mm 1 mps 653 mmHg 68%
    04:00 +14°C° 0 mm 2 mps 653 mmHg 69%
    05:00 +14°C° 0 mm 2 mps 653 mmHg 69%
    06:00 +16°C° 0 mm 1 mps 654 mmHg 64%
    07:00 +19°C° 0 mm 1 mps 655 mmHg 58%
    08:00 +21°C° 0 mm 1 mps 655 mmHg 53%
    09:00 +22°C° 0 mm 1 mps 656 mmHg 48%
    10:00 +24°C° 0 mm 1 mps 656 mmHg 43%
    11:00 +26°C° 0 mm 2 mps 656 mmHg 38%
    12:00 +26°C° 0.2 mm 2 mps 656 mmHg 39%
    13:00 +26°C° 0.2 mm 1 mps 656 mmHg 40%
    14:00 +26°C° 0.2 mm 1 mps 655 mmHg 41%
    15:00 +26°C° 0.2 mm 1 mps 655 mmHg 42%
    16:00 +25°C° 0.2 mm 1 mps 655 mmHg 43%
    17:00 +25°C° 0.2 mm 1 mps 655 mmHg 44%
    18:00 +23°C° 0 mm 1 mps 654 mmHg 48%
    19:00 +21°C° 0 mm 1 mps 654 mmHg 52%
    20:00 +20°C° 0 mm 1 mps 654 mmHg 56%
    21:00 +19°C° 0 mm 1 mps 654 mmHg 56%
    22:00 +18°C° 0 mm 2 mps 654 mmHg 56%
    23:00 +18°C° 0 mm 2 mps 654 mmHg 56%

    26 August, Sunday

    Time Temperature Precipitation Wind Pressure Humidity
    00:00 +17°C° 0 mm 2 mps 654 mmHg 56%
    01:00 +17°C° 0 mm 2 mps 654 mmHg 56%
    02:00 +17°C° 0 mm 2 mps 654 mmHg 56%
    03:00 +16°C° 0 mm 2 mps 654 mmHg 57%
    04:00 +16°C° 0 mm 2 mps 654 mmHg 57%
    05:00 +16°C° 0 mm 2 mps 654 mmHg 58%
    06:00 +19°C° 0 mm 1 mps 654 mmHg 54%
    07:00 +20°C° 0 mm 1 mps 655 mmHg 50%
    08:00 +22°C° 0 mm 1 mps 656 mmHg 46%
    09:00 +24°C° 0 mm 1 mps 656 mmHg 42%
    10:00 +25°C° 0 mm 1 mps 656 mmHg 38%
    11:00 +27°C° 0 mm 2 mps 657 mmHg 34%
    12:00 +27°C° 0 mm 2 mps 656 mmHg 34%
    13:00 +27°C° 0 mm 2 mps 656 mmHg 35%
    14:00 +27°C° 0 mm 2 mps 656 mmHg 35%
    15:00 +27°C° 0 mm 2 mps 655 mmHg 37%
    16:00 +26°C° 0 mm 2 mps 655 mmHg 39%
    17:00 +26°C° 0 mm 2 mps 655 mmHg 40%
    18:00 +24°C° 0 mm 2 mps 654 mmHg 46%
    19:00 +22°C° 0 mm 1 mps 654 mmHg 51%
    20:00 +20°C° 0 mm 1 mps 653 mmHg 57%
    21:00 +20°C° 0 mm 1 mps 653 mmHg 57%
    22:00 +20°C° 0 mm 1 mps 653 mmHg 58%
    23:00 +18°C° 0 mm 2 mps 654 mmHg 58%
    Show more